Location: ??
(35.3149°N, 139.6204°E)
Time: 09:52:11
(UTC+00:00)

MOS 1 Rocket - Pass Details

Date: 03 August 2024
Orbit: 612 x 819 km, 97.5° (Epoch: 09 September)

Event Time Altitude Azimuth Distance (km) Brightness Sun altitude
Exits shadow 12:06:33 69° 256° (WSW) 660 3.1 -25.0°
Maximum altitude 12:06:35 69° 259° (W) 659 3.1 -25.0°
Drops below altitude 10° 12:10:49 10° 343° (NNW) 1,973 6.5 -25.6°
Sets 12:13:01 0° 346° (NNW) 2,884 7.5 -25.9°
